Regional Weather Roundup
Issued by NWS Goodland, KS

Home | Current Version | Previous Version | Text Only | Print | Product List | Glossary On
Versions: 1 2 3 4 5 6 7 8 9 10 11 12 13 14 15 16 17 18 19 20 21 22 23 24 25 26 27 28 29 30 31 32 33 34 35 36 37 38 39 40 41 42 43 44 45 46 47 48 49 50
000
ASUS43 KGLD 200008
RWRGLD

GOODLAND FORECAST AREA HOURLY WEATHER ROUNDUP
NATIONAL WEATHER SERVICE GOODLAND KS
600 PM MDT SAT AUG 19 2017

...OFFICIAL OBSERVATIONS...

CITY           SKY/WX    TMP DP  RH WIND       PRES   REMARKS
GOODLAND KS    SUNNY     92  52  25 SW13      29.89F
HILL CITY KS   SUNNY     95  56  26 S7        29.83F
IMPERIAL NEB   CLOUDY    91  59  33 S6        29.85S
MCCOOK NEB     CLOUDY    92  64  39 S12       29.82S
AKRON CO       NOT AVBL
BURLINGTON CO  SUNNY     91  55  29 SW10      29.94F
LIMON CO       SUNNY     86  46  24 SE9       30.02S
$$

...UNOFFICIAL OBSERVATIONS...

CITY           SKY/WX    TMP DP  RH WIND       PRES   REMARKS
LENORA KS        N/A     93  32  11 S7          N/A
NORTON KS      SUNNY     93  48  21 S8        29.82F
TRENTON NEB      N/A     93  32  11 CALM        N/A
KIT CARSON CO    N/A     93  54  26 MISG        N/A
YUMA CO        FAIR      88  52  29 SE6       29.91S
$$



USA.gov is the U.S. government's official web portal to all federal, state and local government web resources and services.